COSMOS 2345 1 24894U 97041A 21063.85043385 -.00000226 00000-0 00000-0 0 9997 2 24894 14.1997 12.6329 0162741 254.4703 284.6461 1.00146716 86303 SL-12 R/B(2) 1 24897U 97041D 21063.61837191 -.00000197 00000-0 00000-0 0 9997 2 24897 14.2856 12.9365 0357266 254.0410 107.7750 1.00016572 86057